Change the Weather History Date:

Thursday, January 30, 2014

  Actual Average Record
Temperature  
Mean Temperature 12 °F -  
Max Temperature 16 °F 26 °F 44 °F (2013)
Min Temperature 7 °F 10 °F -7 °F (1997)
Degree Days  
Heating Degree Days 54    
Moisture  
Dew Point 4 °F    
Average Humidity 68    
Maximum Humidity 92    
Minimum Humidity 32    
Precipitation  
Precipitation 0.00 in 0.12 in - ()
Sea Level Pressure  
Sea Level Pressure 30.21 in    
Wind  
Wind Speed 8 mph ()    
Max Wind Speed 15 mph    
Max Gust Speed 18 mph    
Visibility 15.0 miles    
Events Snow    
Averages and records for this station are not official NWS values.
T = Trace of Precipitation, MM = Missing Value Source: Averaged Metar Reports

Daily Weather History Graph

Daily Weather History Graph

Search for Another Location

Airport or City:

Trip Planner

Search our weather history database for the weather conditions in past years. The results will help you decide how hot, cold, wet, or windy it might be!

Date:

Astronomy

Jan. 30, 2014 Rise Set
Actual Time 7:37 AM AST 5:14 PM AST
Civil Twilight 7:05 AM AST 5:46 PM AST
Nautical Twilight 6:29 AM AST 6:22 PM AST
Astronomical Twilight 5:54 AM AST 6:57 PM AST
Moon 6:58 AM AST (1/30) 5:24 PM AST (1/30)
Length of Visible Light 10h 40m
Length of Day
9h 36m
Waning Crescent, 0% of the Moon is Illuminated
Jan 30
Waning Crescent
Jan 30
New
Feb 6
First Quarter
Feb 14
Full
Feb 22
Last Quarter

Hourly Weather History & Observations

Time (AST) Temp. Windchill Dew Point Humidity Pressure Visibility Wind Dir Wind Speed Gust Speed Precip Events Conditions
12:00 AM 12.2 °F 1.7 °F 10.4 °F 92% 29.90 in 15.0 mi SW 6.9 mph - N/A   Mostly Cloudy
1:00 AM 12.2 °F -0.2 °F 10.4 °F 92% 29.92 in 15.0 mi WSW 9.2 mph - N/A   Mostly Cloudy
2:00 AM 12 °F - 8 °F 76% 29.96 in 15 mi West 8.1 mph - -   Partly Cloudy
2:00 AM 12.2 °F 0.7 °F 8.6 °F 85% 29.96 in 15.0 mi West 8.1 mph - N/A   Scattered Clouds
3:00 AM 10.4 °F -1.5 °F 1.4 °F 67% 29.99 in 15.0 mi West 8.1 mph - N/A   Partly Cloudy
4:00 AM 10.4 °F -4.1 °F 1.4 °F 67% 30.01 in 15.0 mi West 11.5 mph - N/A   Clear
5:00 AM 10.4 °F -2.4 °F 1.4 °F 67% 30.06 in 15.0 mi West 9.2 mph 18.4 mph N/A   Clear
6:00 AM 8.6 °F -5.5 °F 1.4 °F 73% 30.10 in 15.0 mi WSW 10.4 mph - N/A   Clear
7:00 AM 8.6 °F -3.7 °F 1.4 °F 73% 30.14 in 15.0 mi West 8.1 mph - N/A   Partly Cloudy
8:00 AM 8 °F - 1 °F 60% 30.19 in 15 mi West 9.2 mph - -   Scattered Clouds
8:00 AM 8.6 °F -3.7 °F 1.4 °F 73% 30.19 in 15.0 mi West 8.1 mph - N/A   Partly Cloudy
9:00 AM 10.4 °F -4.1 °F 1.4 °F 67% 30.23 in 15.0 mi WSW 11.5 mph - N/A   Partly Cloudy
10:00 AM 12.2 °F -1.0 °F 1.4 °F 62% 30.26 in 15.0 mi West 10.4 mph - N/A Snow Low Drifting Snow
11:00 AM 14.0 °F 0.5 °F 1.4 °F 57% 30.31 in 15.0 mi West 11.5 mph - N/A Snow Low Drifting Snow
12:00 PM 14.0 °F 0.5 °F 1.4 °F 57% 30.32 in 15.0 mi WSW 11.5 mph 17.3 mph N/A Snow Low Drifting Snow
1:00 PM 14.0 °F -1.4 °F 1.4 °F 57% 30.32 in 15.0 mi West 15.0 mph - N/A Snow Low Drifting Snow
2:00 PM 15 °F - -1 °F 32% 30.30 in 15 mi West 11.5 mph - -   Scattered Clouds
2:00 PM 15.8 °F 2.7 °F -2.2 °F 45% 30.30 in 15.0 mi WSW 11.5 mph - N/A   Partly Cloudy
3:00 PM 15.8 °F 6.1 °F -0.4 °F 49% 30.31 in 15.0 mi WSW 6.9 mph - N/A   Scattered Clouds
4:00 PM 15.8 °F 5.1 °F 1.4 °F 53% 30.32 in 15.0 mi SSW 8.1 mph - N/A   Mostly Cloudy
5:00 PM 14.0 °F 3.9 °F 3.2 °F 62% 30.33 in 15.0 mi SSW 6.9 mph - N/A   Mostly Cloudy
6:00 PM 12.2 °F 1.7 °F 3.2 °F 67% 30.34 in 15.0 mi South 6.9 mph - N/A   Scattered Clouds
7:00 PM 10.4 °F -0.4 °F 3.2 °F 73% 30.35 in 15.0 mi South 6.9 mph - N/A   Partly Cloudy
8:00 PM 10 °F - 4 °F 65% 30.35 in 15 mi SSE 6.9 mph - -   Scattered Clouds
8:00 PM 8.6 °F -2.6 °F 3.2 °F 79% 30.35 in 15.0 mi South 6.9 mph - N/A   Partly Cloudy
8:23 PM 12.2 °F -0.2 °F 6.8 °F 79% 30.35 in 15.0 mi South 9.2 mph - N/A Snow Light Snow Showers
9:00 PM 15.8 °F 2.1 °F 10.4 °F 79% 30.34 in 15.0 mi SSW 12.7 mph - N/A Snow Light Snow Showers
9:26 PM 15.8 °F 2.1 °F 8.6 °F 73% 30.32 in 15.0 mi South 12.7 mph - N/A   Scattered Clouds
10:00 PM 15.8 °F 2.7 °F 10.4 °F 79% 30.32 in 15.0 mi South 11.5 mph - N/A Snow Light Snow Showers
11:00 PM 14.0 °F 2.0 °F 8.6 °F 79% 30.29 in 15.0 mi South 9.2 mph - N/A Snow Light Snow Showers